Weather Roundup
Issued by NWS Corpus Christi, TX

Home | Current Version | Previous Version | Text Only | Print | Product List | Glossary On
Versions: 1 2 3 4 5 6 7 8 9 10 11 12 13 14 15 16 17 18 19 20 21 22 23 24 25 26 27 28 29 30 31 32 33 34 35 36 37 38 39 40 41 42 43 44 45 46 47 48 49 50
000
ASUS44 KCRP 292010
HRRCRP

SOUTH TEXAS REGIONAL WEATHER ROUNDUP
NATIONAL WEATHER SERVICE CORPUS CHRISTI TX
300 PM CDT FRI APR 29 2016


TXZ229>244-292100-
...CORPUS CHRISTI AREA OBSERVATIONS...

CITY           SKY/WX    TMP DP  RH WIND       PRES   REMARKS
CORPUS CHRISTI CLOUDY    85  76  74 S25       29.64F HX  94
NAS CORPUS CHR CLOUDY    82  77  84 S20G28    29.64F HX  90
ROCKPORT       CLOUDY    82  74  76 S12G21    29.66F
KINGSVILLE NAS CLOUDY    88  78  72 SE16G25   29.61F HX 101
ALICE          CLOUDY    91  72  53 S21       29.60F HX  98
FALFURRIAS     CLOUDY    90  72  55 S18       29.61F HX  96
$$

...VICTORIA AREA OBSERVATIONS...

CITY           SKY/WX    TMP DP  RH WIND       PRES   REMARKS
VICTORIA       CLOUDY    83  74  74 S20       29.67F
BEEVILLE       CLOUDY    87  76  70 SE17G24   29.64F HX  98
PLEASANTON     CLOUDY    85  73  67 SE13G21   29.62F HX  92
SAN ANTONIO    CLOUDY    82  74  76 SE16      29.64F
$$

...LAREDO AREA OBSERVATIONS...

CITY           SKY/WX    TMP DP  RH WIND       PRES   REMARKS
LAREDO         CLOUDY    91  72  53 SW5       29.59F HX  98
COTULLA        CLOUDY    92  67  43 SW7       29.59F HX  95
DEL RIO        SUNNY     88  66  48 NE8       29.60F HX  90
MCALLEN        CLOUDY    88  74  63 SE15      29.62F HX  96
HEBBRONVILLE   PTSUNNY   91  69  48 S15G24    29.62F HX  96
$$

...OTHER TEXAS OBSERVATIONS...

CITY           SKY/WX    TMP DP  RH WIND       PRES   REMARKS
BROWNSVILLE    CLOUDY    83  77  82 SE22G30   29.64S HX  92
HOUSTON        CLOUDY    83  72  69 S20G30    29.70F
COL. STATION   MOSUNNY   86  72  62 S22G30    29.64F HX  92
AUSTIN         PTSUNNY   83  74  74 S18G28    29.63F HAZE
WACO           TSTM      77  74  90 S14       29.62F FOG
FORT WORTH     CLOUDY    83  73  72 S13       29.58F HAZE
WICHITA FALLS  PTSUNNY   86  69  56 S21G28    29.53F HX  90
LUBBOCK        MOSUNNY   77  34  21 W20G29    29.68F
EL PASO        MOSUNNY   69  17  13 W15G21    29.86F
$$

...MARINE OBSERVATIONS...

STATION/POSITION TIME  SKY/WX   TEMP    WIND        PRES    VSBY  WAVE   SWELL
                                AIR SEA DIR/SP/G                  HT/PER HT/PER
                 (UTC)          (F)     (DEG/KT/KT) (MB)    (MI)  (FT/S) (FT/S)
PORT ARANSAS     2000            79 78  160/ 15/ 16 1004.8F
BUOY 90 E PORT A 1950            78 76  140/ 17/ 23 1004.9S         8/ 8   2/13
BUOY 45 SE BAFFI 1950            79 77  170/ 21/ 25 1002.8F         9/ 8   3/14
BUOY 200 E PT IS 1950                                 N/A           8/ 7   2/11
BUOY 15 E GALVES 1950            77 77  160/ 19/ 23 1005.9F         6/ 7
$$




USA.gov is the U.S. government's official web portal to all federal, state and local government web resources and services.